Weather History for Clemson, SC

Change the Weather History Date:

Sunday, June 8, 2014

  Actual Average Record
Temperature  
Mean Temperature 80 °F -  
Max Temperature 89 °F 84 °F 98 °F (1933)
Min Temperature 71 °F 61 °F 46 °F (1977)
Cooling Degree Days 15    
Growing Degree Days 30 (Base 50)    
Moisture  
Dew Point 67 °F    
Average Humidity 76    
Maximum Humidity 94    
Minimum Humidity 39    
Precipitation  
Precipitation 0.52 in - - ()
Sea Level Pressure  
Sea Level Pressure 29.94 in    
Wind  
Wind Speed 5 mph (West)    
Max Wind Speed 15 mph    
Max Gust Speed 22 mph    
Visibility 8 miles    
Events Rain , Thunderstorm    
Averages and records for this station are not official NWS values.
T = Trace of Precipitation, MM = Missing Value Source: NWS Daily Summary

Daily Weather History Graph

Daily Weather History Graph

Search for Another Location

Airport:

Trip Planner

Search our weather history database for the weather conditions in past years. The results will help you decide how hot, cold, wet, or windy it might be!

Date:

Astronomy

Jun. 08, 2014 Rise Set
Actual Time 6:18 AM EDT 8:43 PM EDT
Civil Twilight 5:48 AM EDT 9:12 PM EDT
Nautical Twilight 5:12 AM EDT 9:48 PM EDT
Astronomical Twilight 4:33 AM EDT 10:28 PM EDT
Moon 4:10 PM EDT (6/8) 2:59 AM EDT (6/8)
Length of Visible Light 15h 23m
Length of Day
14h 25m
Waxing Gibbous, 77% of the Moon is Illuminated
Jun 8
Waxing Gibbous
Jun 13
Full
Jun 19
Last Quarter
Jun 27
New
Jul 5
First Quarter

Hourly Weather History & Observations

Time (EDT) Temp. Heat Index Dew Point Humidity Pressure Visibility Wind Dir Wind Speed Gust Speed Precip Events Conditions
12:22 AM 77.0 °F - 68.0 °F 74% 30.00 in 10.0 mi SE 3.5 mph - N/A   Overcast
12:54 AM 77.0 °F - 68.0 °F 74% 29.96 in 10.0 mi Variable 3.5 mph - N/A   Mostly Cloudy
1:54 AM 75.9 °F - 68.0 °F 76% 29.94 in 10.0 mi Calm Calm - 0.00 in   Overcast
2:12 AM 75.0 °F - 68.0 °F 79% 29.98 in 10.0 mi Calm Calm - 0.00 in Rain , Thunderstorm Light Thunderstorms and Rain
2:19 AM 75.0 °F - 68.0 °F 79% 29.98 in 10.0 mi WSW 3.5 mph - 0.00 in Rain , Thunderstorm Light Thunderstorms and Rain
2:29 AM 73.9 °F - 69.1 °F 85% 29.98 in 2.5 mi North - - 0.11 in Rain Heavy Rain
2:37 AM 73.0 °F - 69.1 °F 87% 29.98 in 1.0 mi North - - 0.24 in Rain Heavy Rain
2:50 AM 73.4 °F - 69.8 °F 88% 29.97 in 1.2 mi North - - 0.41 in Rain , Thunderstorm Heavy Rain
2:54 AM 73.0 °F - 69.1 °F 87% 29.94 in 1.8 mi North - - 0.45 in Rain , Thunderstorm Heavy Rain
2:57 AM 72.0 °F - 68.0 °F 87% 29.97 in 2.5 mi North - - 0.02 in Rain , Thunderstorm Heavy Rain
3:07 AM 72.0 °F - 68.0 °F 87% 29.97 in 5.0 mi North - - 0.03 in Rain , Thunderstorm Light Rain
3:29 AM 72.0 °F - 69.1 °F 91% 29.96 in 7.0 mi North - - 0.03 in Rain , Thunderstorm Light Rain
3:39 AM 72.0 °F - 68.0 °F 87% 29.96 in 7.0 mi North - - 0.03 in Thunderstorm Overcast
3:52 AM 73.4 °F - 68.0 °F 83% 29.96 in 5.0 mi North - - 0.04 in Rain Light Rain
3:54 AM 73.0 °F - 68.0 °F 84% 29.92 in 7.0 mi North - - 0.04 in Rain Light Rain
4:07 AM 73.0 °F - 69.1 °F 87% 29.96 in 6.0 mi North - - 0.00 in Thunderstorm Overcast
4:16 AM 73.0 °F - 69.1 °F 87% 29.95 in 5.0 mi North - - 0.00 in   Overcast
4:25 AM 73.0 °F - 69.1 °F 87% 29.95 in 6.0 mi North - - 0.00 in   Overcast
4:38 AM 73.0 °F - 69.1 °F 87% 29.95 in 7.0 mi North - - 0.00 in   Overcast
4:46 AM 73.0 °F - 69.1 °F 87% 29.94 in 9.0 mi North - - 0.00 in   Overcast
4:54 AM 72.0 °F - 69.1 °F 91% 29.91 in 9.0 mi North - - 0.00 in   Overcast
5:49 AM 71.6 °F - 69.8 °F 94% 29.93 in 7.0 mi North - - 0.03 in Rain Light Rain
5:54 AM 72.0 °F - 69.1 °F 91% 29.89 in 7.0 mi North - - 0.03 in Rain Light Rain
6:34 AM 72.0 °F - 68.0 °F 87% 29.94 in 6.0 mi North - - 0.00 in   Overcast
6:44 AM 72.0 °F - 68.0 °F 87% 29.95 in 6.0 mi North - - 0.00 in   Overcast
6:54 AM 72.0 °F - 69.1 °F 91% 29.91 in 5.0 mi North - - 0.00 in   Overcast
7:12 AM 72.0 °F - 68.0 °F 87% 29.95 in 5.0 mi North - - N/A   Overcast
7:41 AM 72.0 °F - 69.1 °F 91% 29.95 in 4.0 mi North - - N/A   Overcast
7:54 AM 72.0 °F - 69.1 °F 91% 29.91 in 4.0 mi North - - N/A   Overcast
8:39 AM 73.0 °F - 68.0 °F 84% 29.96 in 6.0 mi North - - N/A   Haze
8:52 AM 73.4 °F - 69.8 °F 88% 29.97 in 7.0 mi North - - N/A   Overcast
8:54 AM 73.9 °F - 68.0 °F 82% 29.94 in 7.0 mi North - - N/A   Overcast
9:31 AM 75.0 °F - 68.0 °F 79% 29.97 in 10.0 mi North - - N/A   Mostly Cloudy
9:38 AM 75.9 °F - 69.1 °F 79% 29.97 in 10.0 mi North - - N/A   Scattered Clouds
9:51 AM 75.2 °F - 69.8 °F 83% 29.97 in 10.0 mi North - - N/A   Mostly Cloudy
9:54 AM 77.0 °F - 69.1 °F 76% 29.94 in 10.0 mi North - - N/A   Mostly Cloudy
10:09 AM 75.9 °F - 69.1 °F 79% 29.97 in 10.0 mi North - - N/A   Overcast
10:22 AM 77.0 °F - 68.0 °F 74% 29.97 in 10.0 mi North - - N/A   Overcast
10:54 AM 78.1 °F - 69.1 °F 74% 29.94 in 10.0 mi Variable 3.5 mph - N/A   Mostly Cloudy
11:38 AM 81.0 °F 83.3 °F 66.9 °F 62% 29.97 in 10.0 mi Calm Calm - N/A   Mostly Cloudy
11:54 AM 81.0 °F 83.3 °F 66.9 °F 62% 29.94 in 10.0 mi Variable 3.5 mph - N/A   Mostly Cloudy
12:54 PM 82.0 °F 83.8 °F 64.9 °F 56% 29.93 in 10.0 mi WSW 8.1 mph - N/A   Mostly Cloudy
1:54 PM 84.0 °F 86.3 °F 66.0 °F 55% 29.91 in 10.0 mi SW 9.2 mph - N/A   Partly Cloudy
2:54 PM 86.0 °F 88.8 °F 66.9 °F 53% 29.88 in 10.0 mi West 10.4 mph - N/A   Scattered Clouds
3:54 PM 88.0 °F 89.3 °F 64.0 °F 45% 29.87 in 10.0 mi WNW 8.1 mph - N/A   Scattered Clouds
4:54 PM 89.1 °F 89.0 °F 61.0 °F 39% 29.84 in 10.0 mi WNW 15.0 mph 21.9 mph N/A   Partly Cloudy
5:54 PM 88.0 °F 87.6 °F 60.1 °F 39% 29.84 in 10.0 mi WNW 11.5 mph 21.9 mph N/A   Clear
6:54 PM 86.0 °F 85.7 °F 60.1 °F 41% 29.84 in 10.0 mi WNW 12.7 mph - N/A   Clear
7:54 PM 84.0 °F 84.4 °F 61.0 °F 46% 29.85 in 10.0 mi West 10.4 mph - N/A   Clear
8:54 PM 80.1 °F 81.2 °F 62.1 °F 54% 29.86 in 10.0 mi West 8.1 mph - N/A   Clear
9:54 PM 78.1 °F - 61.0 °F 56% 29.88 in 10.0 mi West 10.4 mph - N/A   Clear
10:54 PM 75.9 °F - 62.1 °F 62% 29.89 in 10.0 mi West 9.2 mph - N/A   Clear
11:54 PM 73.9 °F - 62.1 °F 66% 29.90 in 10.0 mi West 6.9 mph - N/A   Clear